Le nostre stazioni meteo in Italia

Pubblicità
Il mio iltempo24.it
Dunstaffnage, Gran Bretagna (99006): Temperatura & dewpoint: 10.12.2017 16:00:00 - 16.12.2017 16:00:00 (GMT)Dunstaffnage, Gran Bretagna (99006): Temperatura -20cm: 10.12.2017 16:00:00 - 16.12.2017 16:00:00 (GMT)Dunstaffnage, Gran Bretagna (99006): velocità del vento & gusts: 10.12.2017 16:00:00 - 16.12.2017 16:00:00 (GMT)Dunstaffnage, Gran Bretagna (99006): direzione del vento: 10.12.2017 16:00:00 - 16.12.2017 16:00:00 (GMT)Dunstaffnage, Gran Bretagna (99006): precipitazioni: 10.12.2017 16:00:00 - 16.12.2017 16:00:00 (GMT)
Data & Tempo tt [°C] td [°C] tt -20cm [°C] ff [km/h] ff [kn] fx [km/h] fx [kn] dd rr [mm]
16.12.2017 16:00:00 3,1 2,2 - 8 4 - - E 0,0
16.12.2017 15:00:00 3,5 2,2 - 5 3 - - SE 0,0
16.12.2017 14:00:00 3,9 2,6 - 2 1 - - NE 0,0
16.12.2017 13:00:00 3,8 2,7 - 4 2 - - ESE 0,0
16.12.2017 12:00:00 4,0 3,0 - 4 2 - - NE 0,0
16.12.2017 11:00:00 3,1 2,4 - 8 4 - - E 0,0
16.12.2017 10:00:00 2,9 2,4 - 5 3 - - E 0,0
16.12.2017 09:00:00 2,5 2,2 3,7 2 1 - - ONO 0,0
16.12.2017 08:00:00 2,4 1,9 - 5 3 - - S 0,0
16.12.2017 07:00:00 2,4 1,7 - 4 2 - - SSO 0,2
16.12.2017 06:00:00 3,0 2,2 - 2 1 - - NO 0,0
16.12.2017 05:00:00 3,0 1,9 - 5 3 - - ENE 0,0
16.12.2017 04:00:00 2,8 1,2 - 8 4 - - ENE 0,0
16.12.2017 03:00:00 3,9 1,8 - 5 3 - - SE 0,0
16.12.2017 02:00:00 2,7 1,0 - 5 3 - - OSO 0,0
16.12.2017 01:00:00 3,1 -0,3 - 4 2 - - S 0,0
16.12.2017 00:00:00 4,5 -0,1 - 13 7 - - NO 0,0
15.12.2017 23:00:00 4,6 0,0 - 21 11 - - NO 0,0
15.12.2017 22:00:00 3,6 0,8 - 8 4 - - O 0,0
15.12.2017 21:00:00 3,5 0,8 - 8 4 - - S 0,0
15.12.2017 20:00:00 4,5 0,3 - 11 6 - - NE 0,0
15.12.2017 19:00:00 4,9 0,3 - 11 6 - - N 0,0
15.12.2017 18:00:00 - - - - - - - - 0,0
15.12.2017 17:00:00 5,3 0,5 - 9 5 - - NNO 0,0
15.12.2017 16:00:00 5,8 0,3 - 22 12 - - NO 0,0
15.12.2017 15:00:00 5,9 1,2 - 21 11 - - NO 0,0
15.12.2017 14:00:00 6,2 1,0 - 8 4 - - N 0,0
15.12.2017 13:00:00 5,7 0,9 - 8 4 - - NNO 0,0
15.12.2017 12:00:00 5,8 1,9 - 21 11 - - NO 0,0
15.12.2017 11:00:00 5,7 2,1 - 13 7 - - NNO 0,0
15.12.2017 10:00:00 5,1 1,7 - 11 6 - - NNO 0,0
15.12.2017 09:00:00 3,3 0,4 3,7 4 2 - - ONO 0,0
15.12.2017 08:00:00 5,4 1,0 - 13 7 - - NE 0,0
15.12.2017 07:00:00 5,1 2,0 - 8 4 - - N 0,0
15.12.2017 06:00:00 5,0 1,9 - 8 4 - - N 0,0
15.12.2017 05:00:00 5,3 2,4 - 16 9 - - NNE 0,0
15.12.2017 04:00:00 4,2 1,8 - 13 7 - - NNE 0,0
15.12.2017 03:00:00 3,8 2,8 - 8 4 - - NE 0,0
15.12.2017 02:00:00 4,1 1,2 - 2 1 - - N 0,0
15.12.2017 01:00:00 4,3 1,3 - 11 6 - - N 0,0
15.12.2017 00:00:00 4,0 1,1 - 13 7 - - N 0,0
14.12.2017 23:00:00 4,0 1,4 - 29 16 52 28 NE 0,0
14.12.2017 22:00:00 4,2 2,2 - 26 14 52 28 NE 0,0
14.12.2017 21:00:00 4,9 2,8 - 13 7 - - NNE 0,0
14.12.2017 20:00:00 5,7 4,0 - 16 9 - - NNE 0,6
14.12.2017 19:00:00 5,3 3,5 - 13 7 - - ONO 0,4
14.12.2017 18:00:00 5,2 3,3 - 22 12 - - NO 1,0
14.12.2017 17:00:00 4,3 2,6 - 8 4 - - ENE 0,0
14.12.2017 16:00:00 5,0 3,2 - 11 6 - - NO 1,0
14.12.2017 15:00:00 3,9 2,6 - 15 8 - - O 1,4
14.12.2017 14:00:00 4,9 2,1 - 4 2 - - SSO 0,0
14.12.2017 13:00:00 4,0 1,3 - 11 6 - - NO 0,0
14.12.2017 12:00:00 4,1 2,9 - 9 5 - - NO 0,2
14.12.2017 11:00:00 2,8 2,0 - 5 3 - - N 0,0
14.12.2017 10:00:00 2,6 2,1 - 8 4 - - NE 0,0
14.12.2017 09:00:00 2,3 1,8 3,2 4 2 - - ESE 0,0
14.12.2017 08:00:00 2,4 1,7 - 15 8 - - ESE 0,4
14.12.2017 07:00:00 2,5 1,6 - 9 5 - - SSE 0,4
14.12.2017 06:00:00 2,8 2,1 - 4 2 - - SSE 0,2
14.12.2017 05:00:00 2,2 1,4 - 5 3 - - S 1,4
14.12.2017 04:00:00 2,5 1,2 - 8 4 - - SSO 0,2
14.12.2017 03:00:00 4,5 1,2 - 26 14 - - OSO 0,0
14.12.2017 02:00:00 4,1 1,6 - 5 3 - - SSO 0,0
14.12.2017 01:00:00 3,9 1,0 - 11 6 - - SO 0,0
14.12.2017 00:00:00 3,2 1,3 - 11 6 - - SSO 0,0
13.12.2017 23:00:00 3,2 1,0 - 16 9 - - OSO 0,0
13.12.2017 22:00:00 2,6 0,6 - 15 8 - - O 0,0
13.12.2017 21:00:00 2,2 1,1 - 11 6 59 32 OSO 0,4
13.12.2017 20:00:00 1,3 0,3 - 8 4 - - SO 0,0
13.12.2017 19:00:00 2,4 1,4 - 8 4 - - SSO 0,8
13.12.2017 18:00:00 3,5 1,7 - 13 7 - - O 0,6
13.12.2017 17:00:00 2,5 1,1 - 8 4 - - SO 0,2
13.12.2017 16:00:00 3,1 1,2 - 8 4 - - SO 0,0
13.12.2017 15:00:00 4,0 1,9 - 22 12 - - OSO 0,0
13.12.2017 14:00:00 3,6 0,4 - 11 6 - - SO 0,0
13.12.2017 13:00:00 5,5 1,1 - 16 9 - - O 0,0
13.12.2017 12:00:00 5,6 0,9 - 26 14 - - O 0,0
13.12.2017 11:00:00 4,9 1,4 - 21 11 - - OSO 0,0
13.12.2017 10:00:00 4,6 2,4 - 34 18 52 28 O 0,2
13.12.2017 09:00:00 4,9 3,2 2,9 15 8 - - SO 0,4
13.12.2017 08:00:00 4,3 3,0 - 11 6 46 25 SO 1,8
13.12.2017 07:00:00 5,2 4,3 - 15 8 50 27 SO 2,4
13.12.2017 06:00:00 5,2 4,0 - 15 8 52 28 SSO 2,0
13.12.2017 05:00:00 5,9 4,6 - 18 10 - - S 0,8
13.12.2017 04:00:00 6,5 4,5 - 16 9 - - SO 0,2
13.12.2017 03:00:00 6,8 3,9 - 18 10 - - OSO 0,0
13.12.2017 02:00:00 5,3 3,6 - 11 6 - - SO 0,0
13.12.2017 01:00:00 3,4 2,1 - 4 2 - - SSE 0,0
13.12.2017 00:00:00 5,8 3,0 - 11 6 - - NNO 0,0
12.12.2017 23:00:00 6,3 3,0 - 28 15 46 25 O 0,0
12.12.2017 22:00:00 3,0 2,3 - 4 2 - - SSO 0,0
12.12.2017 21:00:00 2,9 2,5 - 11 6 - - E 0,0
12.12.2017 20:00:00 2,9 2,3 - 15 8 - - E 0,2
12.12.2017 19:00:00 3,5 2,3 - 13 7 - - SSE 0,8
12.12.2017 18:00:00 3,1 1,9 - 16 9 - - S 2,2
12.12.2017 17:00:00 3,5 2,3 - 11 6 - - S 1,8
12.12.2017 16:00:00 4,1 2,6 - 9 5 - - SSE 0,8
12.12.2017 15:00:00 4,1 2,5 - 15 8 - - SE 0,0
12.12.2017 14:00:00 4,8 2,9 - 16 9 - - SE 0,4
12.12.2017 13:00:00 3,9 2,8 - 16 9 - - SE 0,0
12.12.2017 12:00:00 1,6 0,9 - 9 5 - - E 0,0
12.12.2017 11:00:00 0,6 -0,2 - 11 6 - - E 0,0
12.12.2017 10:00:00 0,1 -0,7 - 8 4 - - ESE 0,0
12.12.2017 09:00:00 -1,2 -2,1 3,2 13 7 - - ENE 0,0
12.12.2017 08:00:00 -1,1 -1,9 - 15 8 - - E 0,0
12.12.2017 07:00:00 -1,6 -2,4 - 13 7 - - E 0,0
12.12.2017 06:00:00 -1,2 -1,6 - 13 7 - - E 0,0
12.12.2017 05:00:00 -1,7 -2,4 - 15 8 - - E 0,0
12.12.2017 04:00:00 -1,2 -1,9 - 15 8 - - E 0,0
12.12.2017 03:00:00 -1,8 -2,3 - 13 7 - - E 0,0
12.12.2017 02:00:00 -2,1 -2,5 - 4 2 - - E 0,0
12.12.2017 01:00:00 -2,5 -2,8 - 4 2 - - ENE 0,0
12.12.2017 00:00:00 -2,8 -3,3 - 2 1 - - SE 0,0
11.12.2017 23:00:00 -2,4 -2,7 - 2 1 - - ESE 0,0
11.12.2017 22:00:00 -1,7 -1,8 - 4 2 - - E 0,0
11.12.2017 21:00:00 -1,8 -2,1 - 2 1 - - SSO 0,0
11.12.2017 20:00:00 -1,2 -1,5 - 2 1 - - E 0,0
11.12.2017 19:00:00 -0,8 -1,5 - 4 2 - - SO 0,0
11.12.2017 18:00:00 -0,5 -1,5 - 4 2 - - SSO 0,0
11.12.2017 17:00:00 1,7 0,0 - 2 1 - - E 0,0
11.12.2017 16:00:00 4,4 0,9 - 8 4 - - N 0,0
11.12.2017 15:00:00 3,6 1,7 - 8 4 - - N 0,0
11.12.2017 14:00:00 3,4 1,0 - 2 1 - - SSO 0,0
11.12.2017 13:00:00 2,7 1,8 - 5 3 - - E 0,0
11.12.2017 12:00:00 1,6 1,4 - 8 4 - - ENE 0,0
11.12.2017 11:00:00 1,4 1,2 - 5 3 - - E 0,0
11.12.2017 10:00:00 -1,0 -1,3 - 2 1 - - SO 0,0
11.12.2017 09:00:00 -0,2 -0,4 3,7 9 5 - - E 0,0
11.12.2017 08:00:00 -0,3 -0,5 - 8 4 - - ENE 0,0
11.12.2017 07:00:00 0,0 -0,2 - 9 5 - - E 0,0
11.12.2017 06:00:00 -1,6 -2,1 - 2 1 - - SE 0,0
11.12.2017 05:00:00 -0,6 -0,9 - 4 2 - - ESE 0,0
11.12.2017 04:00:00 -1,3 -1,8 - 9 5 - - E 0,0
11.12.2017 03:00:00 -0,7 -1,4 - 13 7 - - ESE 0,0
11.12.2017 02:00:00 -1,2 -2,3 - 13 7 - - ENE 0,0
11.12.2017 01:00:00 -1,6 -2,9 - 13 7 - - E 0,0
11.12.2017 00:00:00 -2,1 -3,3 - 13 7 - - E 0,0
10.12.2017 23:00:00 -2,6 -4,1 - 13 7 - - E 0,0
10.12.2017 22:00:00 -2,5 -4,0 - 8 4 - - E 0,0
10.12.2017 21:00:00 -2,9 -4,0 - 8 4 - - ENE 0,0
10.12.2017 20:00:00 -2,5 -4,1 - 11 6 - - E 0,0
10.12.2017 19:00:00 -2,6 -4,4 - 13 7 - - E 0,0
10.12.2017 18:00:00 -2,2 -3,6 - 8 4 - - E 0,0
10.12.2017 17:00:00 -3,1 -3,9 - 2 1 - - SSE 0,0
10.12.2017 16:00:00 -2,1 -3,5 - 2 1 - - S 0,0

tt = Temperatura
td = dewpoint
tt -20cm = Temperatura -20cm
ff = velocità del vento
fx = gusts
dd = direzione del vento
rr = precipitazioni

Stazioni seguenti

WeatherPro
AMSI
MeteoEarth